User: anonymous
Location: Dover
(39.1580°N, 75.5250°W)
Time: 09:31:44
(UTC-04:00)
Language:

SeaSat 1 - Orbit

View from above orbital plane
View from above orbital plane
View from above satellite
View from above satellite

Ground track
Ground track

The orbit data is extracted from the following two-line orbital elements,

1 10967U 78064A   14292.39870183  .00000711  00000-0  25215-3 0  4188
2 10967 107.9933 070.2377 0001522 248.8244 165.1388 14.43112878906393
Epoch (UTC): 19 October 2014 09:34:07
Eccentricity: 0.0001522
inclination: 107.9933°
perigee height: 747 km
apogee height: 749 km
right ascension of ascending node: 70.2377°
argument of perigee: 248.8244°
revolutions per day: 14.43112878
mean anomaly at epoch: 165.1388°
orbit number at epoch: 90639

The dashed part of the orbit path shows where the satellite is in the earth's shadow,  

DLR